Regional Weather Roundup
Issued by NWS

Home | Current Version | Previous Version | Text Only | Print | Product List | Glossary Off
Versions: 1 2 3 4 5 6 7 8 9 10 11 12 13 14 15 16 17 18 19 20 21 22 23 24 25 26 27

000
ASUS45 KBOI 020110
RWRID

IDAHO REGIONAL WEATHER ROUNDUP
NATIONAL WEATHER SERVICE BOISE ID
700 PM MDT SUN MAY 01 2016

NOTE: "FAIR" INDICATES FEW OR NO CLOUDS BELOW 12000 FEET
WITH NO SIGNIFICANT WEATHER AND/OR OBSTRUCTIONS TO VISIBILITY

IDZ012-014-020200-
SOUTHWEST IDAHO


CITY           SKY/WX    TMP DP  RH WIND       PRES   REMARKS
BOISE          SUNNY     70  39  32 N10G16    30.01F
CALDWELL       SUNNY     71  41  33 N9        30.02S
MOUNTAIN HOME  SUNNY     70  29  22 SE16G24   30.01S
$$

IDZ016-017-020200-
SOUTHCENTRAL IDAHO


CITY           SKY/WX    TMP DP  RH WIND       PRES   REMARKS
BURLEY         SUNNY     61  29  29 SE12      30.06R
JEROME         SUNNY     63  29  27 E15G23    30.06F
TWIN FALLS     MOSUNNY   60  29  30 E10       30.07S
$$

IDZ019>023-020200-
SOUTHEAST IDAHO


CITY           SKY/WX    TMP DP  RH WIND       PRES   REMARKS
IDAHO FALLS    SUNNY     65  20  17 N9        30.08F
POCATELLO      MOSUNNY   64  25  22 E9        30.07S
REXBURG        SUNNY     64  16  15 NE13G22   30.09S
$$

IDZ006-010-011-018-031-032-020200-
CENTRAL IDAHO MOUNTAINS


CITY           SKY/WX    TMP DP  RH WIND       PRES   REMARKS
MCCALL         SUNNY     63  32  31 W8        30.06F
HAILEY         MOSUNNY   61  30  31 SE8G16    30.10F
STANLEY          N/A     60  21  22 NE8       30.12S
SALMON         SUNNY     64  32  29 N6        30.06F
CHALLIS        MOSUNNY   65  23  20 N3        30.08S
$$

IDZ002-004-006-007-026-020200-
NORTHERN IDAHO


CITY           SKY/WX    TMP DP  RH WIND       PRES   REMARKS
LEWISTON       SUNNY     74  42  31 N3        30.02F
LOWELL           N/A     72  44  36 SE6       29.98S
COEUR D`ALENE  FAIR      72  39  30 N13       30.02F
MULLAN PASS    SUNNY     54  30  40 CALM      30.18F
$$




USA.gov is the U.S. government's official web portal to all federal, state and local government web resources and services.